When you browse on this site, cookies collect data to enhance your experience and personalize the content and advertising you see.
Visit our Privacy Policy to learn more. By continuing to use the site, you agree to this use of cookies and data.
  • In Czech Republic
  • List of Countries
  • For 7 days
  • Water Temperature
  • Satellite Maps
  • Weather Map
  • Weather Widgets
  • user-avatar
    Login

    Hourly Weather Baku

    Today, 21 June, Friday

    Time Temperature Precipitation Wind Pressure Humidity
    00:00 +28°C° 0 mm 8 mps 754 mmHg 49%
    01:00 +28°C° 0 mm 8 mps 754 mmHg 48%
    02:00 +28°C° 0 mm 8 mps 754 mmHg 47%
    03:00 +28°C° 0 mm 8 mps 754 mmHg 46%
    04:00 +28°C° 0.1 mm 8 mps 754 mmHg 46%
    05:00 +28°C° 0.1 mm 8 mps 754 mmHg 46%
    06:00 +28°C° 0.1 mm 8 mps 754 mmHg 46%
    07:00 +29°C° 0 mm 9 mps 755 mmHg 45%
    08:00 +31°C° 0 mm 9 mps 755 mmHg 44%
    09:00 +31°C° 0 mm 10 mps 755 mmHg 43%
    10:00 +31°C° 0.5 mm 9 mps 755 mmHg 45%
    11:00 +32°C° 0.5 mm 9 mps 755 mmHg 47%
    12:00 +32°C° 0.5 mm 8 mps 755 mmHg 48%
    13:00 +32°C° 0.8 mm 7 mps 755 mmHg 48%
    14:00 +32°C° 0.8 mm 7 mps 755 mmHg 47%
    15:00 +32°C° 0.8 mm 6 mps 755 mmHg 46%
    16:00 +30°C° 0.4 mm 7 mps 755 mmHg 48%
    17:00 +31°C° 0.4 mm 9 mps 755 mmHg 49%
    18:00 +31°C° 0.4 mm 10 mps 755 mmHg 51%
    19:00 +29°C° 0 mm 11 mps 755 mmHg 51%
    20:00 +29°C° 0 mm 12 mps 755 mmHg 52%
    21:00 +29°C° 0 mm 13 mps 755 mmHg 53%
    22:00 +29°C° 0 mm 12 mps 756 mmHg 52%
    23:00 +29°C° 0 mm 11 mps 756 mmHg 52%

    Tomorrow, 22 June, Saturday

    Time Temperature Precipitation Wind Pressure Humidity
    00:00 +29°C° 0 mm 11 mps 756 mmHg 51%
    01:00 +29°C° 0 mm 10 mps 756 mmHg 49%
    02:00 +29°C° 0 mm 10 mps 756 mmHg 46%
    03:00 +29°C° 0 mm 10 mps 756 mmHg 44%
    04:00 +29°C° 0 mm 10 mps 756 mmHg 45%
    05:00 +29°C° 0 mm 10 mps 756 mmHg 45%
    06:00 +29°C° 0 mm 10 mps 756 mmHg 46%
    07:00 +29°C° 0 mm 10 mps 757 mmHg 45%
    08:00 +31°C° 0 mm 10 mps 757 mmHg 44%
    09:00 +31°C° 0 mm 10 mps 757 mmHg 42%
    10:00 +32°C° 0 mm 9 mps 757 mmHg 40%
    11:00 +33°C° 0 mm 8 mps 757 mmHg 38%
    12:00 +33°C° 0 mm 7 mps 757 mmHg 36%
    13:00 +33°C° 0 mm 6 mps 757 mmHg 37%
    14:00 +33°C° 0 mm 6 mps 757 mmHg 37%
    15:00 +33°C° 0 mm 6 mps 756 mmHg 37%
    16:00 +33°C° 0 mm 6 mps 756 mmHg 40%
    17:00 +32°C° 0 mm 6 mps 756 mmHg 42%
    18:00 +32°C° 0 mm 5 mps 756 mmHg 45%
    19:00 +30°C° 0 mm 5 mps 756 mmHg 46%
    20:00 +30°C° 0 mm 5 mps 757 mmHg 47%
    21:00 +29°C° 0 mm 5 mps 757 mmHg 48%
    22:00 +29°C° 0 mm 4 mps 757 mmHg 49%
    23:00 +29°C° 0 mm 4 mps 757 mmHg 49%

    Day after tomorrow, 23 June, Sunday

    Time Temperature Precipitation Wind Pressure Humidity
    00:00 +29°C° 0 mm 4 mps 757 mmHg 50%
    01:00 +28°C° 0 mm 4 mps 757 mmHg 51%
    02:00 +28°C° 0 mm 4 mps 757 mmHg 52%
    03:00 +28°C° 0 mm 4 mps 757 mmHg 53%
    04:00 +28°C° 0 mm 4 mps 757 mmHg 52%
    05:00 +28°C° 0 mm 4 mps 757 mmHg 50%
    06:00 +29°C° 0 mm 5 mps 757 mmHg 49%
    07:00 +30°C° 0 mm 4 mps 757 mmHg 45%
    08:00 +32°C° 0 mm 4 mps 757 mmHg 41%
    09:00 +33°C° 0 mm 4 mps 757 mmHg 37%
    10:00 +34°C° 0 mm 4 mps 757 mmHg 36%
    11:00 +34°C° 0 mm 3 mps 757 mmHg 35%
    12:00 +34°C° 0 mm 3 mps 757 mmHg 34%
    13:00 +35°C° 0 mm 3 mps 757 mmHg 34%
    14:00 +35°C° 0 mm 3 mps 757 mmHg 33%
    15:00 +35°C° 0 mm 3 mps 756 mmHg 33%
    16:00 +35°C° 0 mm 3 mps 756 mmHg 33%
    17:00 +35°C° 0 mm 2 mps 756 mmHg 33%
    18:00 +34°C° 0 mm 1 mps 756 mmHg 33%
    19:00 +34°C° 0 mm 1 mps 756 mmHg 34%
    20:00 +33°C° 0 mm 1 mps 757 mmHg 35%
    21:00 +33°C° 0 mm 1 mps 757 mmHg 37%
    22:00 +32°C° 0 mm 1 mps 757 mmHg 38%
    23:00 +32°C° 0 mm 1 mps 756 mmHg 40%

    24 June, Monday

    Time Temperature Precipitation Wind Pressure Humidity
    00:00 +31°C° 0 mm 1 mps 756 mmHg 42%
    01:00 +31°C° 0 mm 1 mps 756 mmHg 42%
    02:00 +30°C° 0 mm 1 mps 756 mmHg 43%
    03:00 +30°C° 0 mm 1 mps 756 mmHg 43%
    04:00 +30°C° 0 mm 1 mps 756 mmHg 43%
    05:00 +30°C° 0 mm 1 mps 756 mmHg 42%
    06:00 +31°C° 0 mm 1 mps 757 mmHg 41%
    07:00 +32°C° 0 mm 1 mps 757 mmHg 37%
    08:00 +33°C° 0 mm 1 mps 757 mmHg 34%
    09:00 +34°C° 0 mm 1 mps 757 mmHg 30%
    10:00 +35°C° 0 mm 1 mps 757 mmHg 28%
    11:00 +38°C° 0 mm 2 mps 757 mmHg 25%
    12:00 +39°C° 0 mm 3 mps 757 mmHg 22%
    13:00 +39°C° 0 mm 3 mps 756 mmHg 22%
    14:00 +40°C° 0 mm 4 mps 756 mmHg 22%
    15:00 +40°C° 0 mm 4 mps 756 mmHg 22%
    16:00 +38°C° 0 mm 4 mps 756 mmHg 24%
    17:00 +38°C° 0 mm 3 mps 756 mmHg 25%
    18:00 +37°C° 0 mm 3 mps 756 mmHg 26%
    19:00 +36°C° 0 mm 2 mps 756 mmHg 28%
    20:00 +36°C° 0 mm 2 mps 756 mmHg 29%
    21:00 +35°C° 0 mm 2 mps 756 mmHg 30%
    22:00 +35°C° 0 mm 2 mps 756 mmHg 32%
    23:00 +33°C° 0 mm 1 mps 756 mmHg 34%

    25 June, Tuesday

    Time Temperature Precipitation Wind Pressure Humidity
    00:00 +33°C° 0 mm 1 mps 756 mmHg 35%
    01:00 +32°C° 0 mm 1 mps 756 mmHg 36%
    02:00 +32°C° 0 mm 1 mps 756 mmHg 37%
    03:00 +32°C° 0 mm 1 mps 756 mmHg 37%
    04:00 +31°C° 0 mm 2 mps 756 mmHg 40%
    05:00 +32°C° 0 mm 4 mps 756 mmHg 43%
    06:00 +30°C° 0 mm 5 mps 756 mmHg 45%
    07:00 +32°C° 0 mm 6 mps 756 mmHg 44%
    08:00 +33°C° 0 mm 6 mps 757 mmHg 44%
    09:00 +33°C° 0 mm 6 mps 757 mmHg 43%
    10:00 +34°C° 0 mm 7 mps 757 mmHg 42%
    11:00 +34°C° 0 mm 7 mps 757 mmHg 41%
    12:00 +35°C° 0 mm 7 mps 757 mmHg 41%
    13:00 +34°C° 0 mm 7 mps 757 mmHg 44%
    14:00 +33°C° 0 mm 8 mps 757 mmHg 47%
    15:00 +33°C° 0 mm 8 mps 756 mmHg 50%
    16:00 +32°C° 0 mm 8 mps 756 mmHg 52%
    17:00 +32°C° 0 mm 8 mps 756 mmHg 54%
    18:00 +31°C° 0 mm 8 mps 756 mmHg 57%
    19:00 +30°C° 0 mm 7 mps 756 mmHg 55%
    20:00 +30°C° 0 mm 7 mps 757 mmHg 54%
    21:00 +30°C° 0 mm 7 mps 757 mmHg 53%
    22:00 +30°C° 0 mm 6 mps 757 mmHg 52%
    23:00 +30°C° 0 mm 5 mps 757 mmHg 52%

    26 June, Wednesday

    Time Temperature Precipitation Wind Pressure Humidity
    00:00 +30°C° 0 mm 5 mps 756 mmHg 51%
    01:00 +30°C° 0 mm 5 mps 756 mmHg 52%
    02:00 +30°C° 0 mm 5 mps 756 mmHg 53%
    03:00 +30°C° 0 mm 5 mps 756 mmHg 53%
    04:00 +30°C° 0 mm 5 mps 756 mmHg 52%
    05:00 +32°C° 0 mm 6 mps 756 mmHg 50%
    06:00 +32°C° 0 mm 6 mps 757 mmHg 49%
    07:00 +33°C° 0 mm 6 mps 757 mmHg 48%
    08:00 +33°C° 0 mm 6 mps 757 mmHg 47%
    09:00 +34°C° 0 mm 7 mps 757 mmHg 46%
    10:00 +34°C° 0 mm 7 mps 757 mmHg 46%
    11:00 +34°C° 0 mm 8 mps 757 mmHg 45%
    12:00 +34°C° 0 mm 8 mps 756 mmHg 45%
    13:00 +33°C° 0 mm 9 mps 756 mmHg 47%
    14:00 +33°C° 0 mm 9 mps 756 mmHg 50%
    15:00 +33°C° 0 mm 9 mps 755 mmHg 52%
    16:00 +32°C° 0 mm 9 mps 755 mmHg 54%
    17:00 +32°C° 0 mm 9 mps 755 mmHg 55%
    18:00 +31°C° 0 mm 9 mps 755 mmHg 56%
    19:00 +31°C° 0 mm 9 mps 755 mmHg 58%
    20:00 +29°C° 0 mm 9 mps 755 mmHg 61%
    21:00 +28°C° 0 mm 9 mps 755 mmHg 63%
    22:00 +28°C° 0 mm 9 mps 755 mmHg 66%
    23:00 +27°C° 0 mm 9 mps 754 mmHg 69%
    Show more